STARLINK-32802 (62738 NORAD) Tracking and Keplerian Element Data

This shows tracking and keplerian element data for the satellite.

Feedback or suggestion? Click here.




ElementValue
Catalog62738
NameSTARLINK-32802
Epoch Orbit221
Epoch Day35.25001157
Epoch Year2025
RAAN253.885
Inclination42.9997
Eccentricity0.0001835
Argument of Perigee272.5425
Mean Anonmoly88.9838
Mean Motion15.64339568
Decay Rate-0.01473869
L11 62738U 25014D 25035.25001157 -.01473869 00000+0 -16725-1 0 9995
L22 62738 42.9997 253.8850 0001835 272.5425 88.9838 15.64339568 2212



Live tracking and technical data element details for STARLINK-32802 (NORAD 62738). STARLINK-32802 can be tracked NOW for your location showing map with azimuth and elevation plus other details from your city location.







IsCatalogInMostPopularTable: catalog: 62738, numindb: 4
Update: records affected: 1



GetName: 62738 STARLINK-32802

Hit Count: updated at: Sun, 09 Feb 2025 15:42:19 GMT